Regional Weather Roundup
Issued by NWS Jackson, KY

Home | Current Version | Previous Version | Graphics & Text | Print | Product List | Glossary On
Versions: 1 2 3 4 5 6 7 8 9 10 11 12 13 14 15 16 17 18 19 20 21 22 23 24 25 26 27 28 29 30 31 32 33 34 35 36 37 38 39 40 41 42 43 44 45 46 47 48 49 50
000
ASUS43 KJKL 220819
RWRJKL

EAST KENTUCKY HOURLY WEATHER ROUNDUP
NATIONAL WEATHER SERVICE JACKSON KY
300 AM EST MON DEC 22 2014

NOTE: "FAIR" INDICATES FEW OR NO CLOUDS BELOW 12,000 FEET WITH
NO SIGNIFICANT WEATHER AND/OR OBSTRUCTIONS TO VISIBILITY.

* THESE REPORTS ARE NOT UNDER NWS QUALITY CONTROL AND MAY NOT
  REPORT WEATHER SUCH AS PRECIPITATION AND FOG.

KYZ079-080-083-085-087-088-110-112-115-119-120-220900
...EASTERN KENTUCKY...

CITY           SKY/WX    TMP DP  RH WIND       PRES   REMARKS
JACKSON        CLEAR     37  26  64 SE6       30.04F WCI  32
LONDON         MOCLDY    36  28  73 CALM      30.02S
SOMERSET*      CLOUDY    36  30  80 N5        30.04F WCI  32
MONTICELLO*    CLOUDY    40  36  86 CALM      30.04F
MIDDLESBORO*   CLOUDY    40  37  86 CALM      30.07S
HARLAN APT*    CLOUDY    34  32  93 E10       30.06F WCI  26
BLACK MTN*       N/A     36  36 100 CALM        N/A
PIKEVILLE APT* CLOUDY    34  28  80 SE5       30.07F WCI  30
BIG SANDY*     CLOUDY    32  28  85 CALM      30.07F
MOREHEAD APT*  CLOUDY    37  27  65 CALM      30.07S
ASHLAND*       CLOUDY    28  21  74 W5        30.07F WCI  23
$$

KYZ035-036-041-042-044-050-067-078-099-220900
...CENTRAL KENTUCKY...

CITY           SKY/WX    TMP DP  RH WIND       PRES   REMARKS
MT STERLING*   CLOUDY    34  30  86 CALM      30.06S
FLEMING/MASON* CLOUDY    32  27  80 E5        30.06F WCI  27
DANVILLE*      CLOUDY    34  30  86 S3        30.04S
RICHMOND*      CLOUDY    34  28  80 E5        30.03S WCI  30
LEXINGTON      CLOUDY    37  28  70 SE9       30.03S WCI  30
FRANKFORT      CLOUDY    33  27  78 E3        30.03S
$$

KYZ091>093-OHZ055-061-077-WVZ005-015-034-035-042-220900
...SOUTHERN OHIO/WEST VIRGINIA...

CITY           SKY/WX    TMP DP  RH WIND       PRES   REMARKS
COVINGTON      CLOUDY    31  24  75 E8        30.04F WCI  23
COLUMBUS       CLEAR     27  21  78 E6        30.09F WCI  20
DAYTON         PTCLDY    27  24  89 E8        30.07F FOG     WCI  19
WILMINGTON     PTCLDY    25  21  85 E3        30.06F FOG
HUNTINGTON     CLOUDY    32  27  81 E3        30.07F
CHARLESTON     MOCLDY    31  27  85 CALM      30.10S
PINEVILLE*     CLEAR     29  29 100 MISG      30.15S
BECKLEY        PTCLDY    35  30  82 SE13      30.09F WCI  26
BLUEFIELD      CLOUDY    37  32  82 SE9       30.10F WCI  30
$$

VAZ002-007-008-TNZ017-027-036-066-071-220900
...SOUTHWEST VIRGINIA/EAST TENNESSEE...

CITY           SKY/WX    TMP DP  RH WIND       PRES   REMARKS
WISE*          MOCLDY    37  32  81 SE3       30.07F
ABINGDON*      CLOUDY    41  36  81 E8        30.09S
BRISTOL        CLOUDY    38  34  85 CALM      30.09S
KNOXVILLE      CLOUDY    43  36  76 N6        30.04F
OAK RIDGE      CLOUDY    45  37  73 CALM      30.06F
CROSSVILLE     CLOUDY    45  38  76 SE5       30.02F
NASHVILLE      CLOUDY    45  42  89 SE7       29.99F
$$

...KEY TO REMARKS...
VSB - VISIBILITY IN MILES
WCI - WIND CHILL INDEX
HX  - HEAT INDEX

$$


USA.gov is the U.S. government's official web portal to all federal, state and local government web resources and services.